QPF
0.00 0.00 0.00 0.01 0.02 0.02 0.03 0.04 0.03 0.03 0.01 0.01 0.01 0.00 0.00 0.01 0.01 0.02 0.03 0.03 0.02 0.02 0.01 0.01 0.03 0.02 0.01 0.01 0.03 0.04 0.04 0.04 0.03 0.03 0.03 0.03 0.04 0.04 0.04 0.03 0.03 0.04 0.04 0.03 0.04 0.05 0.05 0.05 0.05
0.00 0.00 0.01 0.01 0.02 0.02 0.03 0.06 0.04 0.03 0.01 0.01 0.00 0.00 0.00 0.01 0.01 0.02 0.03 0.03 0.01 0.01 0.00 0.01 0.03 0.03 0.01 0.01 0.02 0.05 0.04 0.04 0.05 0.04 0.04 0.04 0.04 0.03 0.03 0.02 0.02 0.05 0.05 0.05 0.04 0.03 0.03 0.04 0.05
0.00 0.00 0.01 0.02 0.02 0.01 0.03 0.06 0.06 0.02 0.01 0.00 0.00 0.00 0.00 0.01 0.01 0.01 0.02 0.01 0.01 0.01 0.01 0.01 0.03 0.02 0.01 0.01 0.02 0.03 0.03 0.03 0.07 0.06 0.07 0.06 0.04 0.03 0.02 0.02 0.03 0.04 0.05 0.05 0.04 0.03 0.02 0.02 0.04
0.00 0.00 0.01 0.02 0.01 0.01 0.02 0.03 0.03 0.01 0.00 0.00 0.00 0.00 0.01 0.01 0.01 0.01 0.01 0.02 0.01 0.01 0.01 0.01 0.02 0.01 0.01 0.01 0.01 0.01 0.02 0.04 0.08 0.10 0.08 0.05 0.04 0.04 0.03 0.03 0.03 0.04 0.04 0.03 0.03 0.04 0.03 0.03 0.04
0.00 0.00 0.01 0.01 0.01 0.02 0.01 0.01 0.01 0.00 0.00 0.00 0.00 0.01 0.03 0.03 0.01 0.01 0.01 0.01 0.01 0.01 0.02 0.02 0.03 0.01 0.01 0.01 0.01 0.01 0.04 0.12 0.12 0.11 0.10 0.08 0.07 0.07 0.06 0.04 0.05 0.05 0.06 0.04 0.03 0.04 0.04 0.05 0.06
0.01 0.01 0.01 0.00 0.01 0.01 0.01 0.01 0.00 0.00 0.00 0.00 0.01 0.01 0.03 0.03 0.02 0.01 0.01 0.01 0.01 0.02 0.02 0.01 0.03 0.01 0.01 0.01 0.01 0.02 0.06 0.17 0.13 0.08 0.10 0.12 0.12 0.11 0.11 0.07 0.07 0.07 0.06 0.04 0.02 0.02 0.03 0.06 0.12
0.00 0.01 0.01 0.00 0.00 0.01 0.00 0.00 0.00 0.00 0.00 0.00 0.00 0.01 0.02 0.01 0.01 0.01 0.01 0.01 0.01 0.02 0.02 0.02 0.03 0.01 0.01 0.01 0.02 0.02 0.03 0.07 0.10 0.11 0.10 0.09 0.10 0.13 0.12 0.07 0.07 0.08 0.07 0.05 0.02 0.01 0.04 0.12 0.22
0.00 0.01 0.01 0.00 0.00 0.00 0.00 0.00 0.00 0.00 0.00 0.00 0.00 0.01 0.01 0.01 0.01 0.01 0.01 0.01 0.01 0.01 0.02 0.03 0.03 0.01 0.00 0.01 0.02 0.02 0.01 0.02 0.05 0.07 0.06 0.05 0.07 0.09 0.08 0.05 0.04 0.07 0.07 0.05 0.04 0.02 0.02 0.05 0.11
0.00 0.01 0.01 0.00 0.01 0.00 0.01 0.00 0.00 0.00 0.00 0.01 0.01 0.00 0.01 0.00 0.01 0.01 0.01 0.01 0.01 0.04 0.03 0.04 0.02 0.01 0.01 0.01 0.02 0.02 0.02 0.02 0.01 0.01 0.02 0.02 0.03 0.05 0.06 0.05 0.05 0.05 0.04 0.05 0.05 0.03 0.03 0.03 0.05
0.01 0.01 0.01 0.01 0.01 0.01 0.01 0.01 0.00 0.00 0.00 0.01 0.01 0.01 0.00 0.00 0.00 0.01 0.01 0.01 0.01 0.02 0.01 0.03 0.03 0.03 0.02 0.03 0.03 0.02 0.02 0.01 0.00 0.00 0.00 0.01 0.01 0.02 0.04 0.05 0.06 0.06 0.05 0.04 0.04 0.03 0.02 0.02 0.02
0.00 0.01 0.02 0.01 0.01 0.01 0.01 0.01 0.01 0.00 0.01 0.01 0.01 0.01 0.01 0.01 0.00 0.01 0.01 0.01 0.01 0.01 0.00 0.01 0.02 0.05 0.05 0.06 0.04 0.03 0.02 0.02 0.01 0.01 0.01 0.01 0.01 0.01 0.01 0.03 0.03 0.04 0.02 0.02 0.02 0.02 0.02 0.02 0.02
0.00 0.00 0.01 0.01 0.01 0.01 0.01 0.01 0.01 0.01 0.01 0.00 0.00 0.01 0.01 0.01 0.00 0.01 0.01 0.00 0.00 0.00 0.00 0.00 0.01 0.03 0.06 0.05 0.04 0.03 0.03 0.02 0.02 0.02 0.02 0.01 0.01 0.01 0.01 0.03 0.01 0.01 0.01 0.01 0.01 0.01 0.01 0.01 0.01
0.00 0.00 0.01 0.01 0.01 0.01 0.01 0.01 0.01 0.01 0.01 0.01 0.01 0.01 0.01 0.01 0.01 0.01 0.01 0.01 0.00 0.01 0.01 0.00 0.00 0.01 0.03 0.04 0.03 0.02 0.02 0.02 0.02 0.03 0.03 0.02 0.02 0.02 0.01 0.02 0.02 0.01 0.00 0.00 0.01 0.01 0.01 0.01 0.00
0.01 0.00 0.01 0.01 0.01 0.01 0.01 0.02 0.02 0.03 0.01 0.01 0.01 0.01 0.01 0.01 0.01 0.01 0.00 0.00 0.00 0.00 0.01 0.01 0.01 0.01 0.02 0.03 0.03 0.02 0.01 0.02 0.02 0.02 0.04 0.04 0.03 0.03 0.02 0.01 0.01 0.01 0.01 0.01 0.01 0.01 0.01 0.01 0.01
0.01 0.01 0.01 0.01 0.01 0.01 0.01 0.03 0.03 0.03 0.01 0.01 0.02 0.01 0.01 0.00 0.00 0.00 0.00 0.00 0.00 0.00 0.02 0.02 0.01 0.01 0.01 0.02 0.02 0.01 0.02 0.01 0.02 0.03 0.03 0.04 0.04 0.03 0.02 0.02 0.01 0.01 0.01 0.01 0.02 0.01 0.00 0.00 0.00
0.02 0.02 0.02 0.01 0.01 0.01 0.01 0.02 0.03 0.02 0.01 0.02 0.01 0.01 0.01 0.00 0.00 0.00 0.01 0.00 0.01 0.01 0.01 0.02 0.02 0.02 0.02 0.02 0.01 0.01 0.01 0.01 0.03 0.05 0.05 0.07 0.07 0.05 0.04 0.03 0.02 0.02 0.02 0.02 0.02 0.01 0.01 0.01 0.01
0.02 0.01 0.02 0.02 0.02 0.01 0.01 0.02 0.03 0.03 0.02 0.01 0.01 0.01 0.01 0.01 0.01 0.01 0.01 0.01 0.00 0.00 0.00 0.02 0.03 0.03 0.03 0.02 0.01 0.01 0.01 0.02 0.04 0.06 0.11 0.17 0.15 0.08 0.05 0.03 0.03 0.03 0.03 0.03 0.03 0.02 0.02 0.02 0.02
0.01 0.01 0.02 0.02 0.02 0.01 0.01 0.02 0.02 0.03 0.02 0.01 0.01 0.01 0.01 0.02 0.02 0.01 0.01 0.01 0.01 0.00 0.00 0.00 0.03 0.04 0.05 0.04 0.03 0.02 0.01 0.01 0.03 0.05 0.07 0.12 0.13 0.11 0.07 0.04 0.03 0.03 0.04 0.04 0.04 0.03 0.02 0.02 0.02
0.01 0.01 0.02 0.01 0.01 0.01 0.01 0.01 0.02 0.02 0.02 0.01 0.01 0.00 0.01 0.01 0.02 0.01 0.01 0.01 0.01 0.01 0.01 0.01 0.01 0.04 0.06 0.08 0.06 0.03 0.01 0.00 0.01 0.03 0.03 0.04 0.07 0.08 0.07 0.06 0.05 0.04 0.04 0.04 0.04 0.03 0.03 0.02 0.02
0.01 0.01 0.02 0.01 0.01 0.01 0.02 0.02 0.01 0.02 0.02 0.01 0.01 0.01 0.01 0.01 0.01 0.01 0.01 0.01 0.01 0.01 0.01 0.01 0.01 0.03 0.06 0.08 0.07 0.04 0.02 0.01 0.01 0.02 0.02 0.01 0.02 0.03 0.04 0.05 0.05 0.05 0.04 0.04 0.04 0.03 0.03 0.03 0.02
0.01 0.01 0.01 0.01 0.01 0.01 0.02 0.02 0.01 0.02 0.02 0.01 0.01 0.02 0.02 0.02 0.01 0.01 0.01 0.01 0.01 0.01 0.01 0.01 0.01 0.01 0.04 0.09 0.09 0.08 0.06 0.04 0.03 0.03 0.03 0.02 0.01 0.01 0.01 0.03 0.04 0.03 0.03 0.03 0.02 0.02 0.01 0.02 0.02
0.01 0.01 0.01 0.00 0.01 0.01 0.01 0.01 0.01 0.01 0.01 0.01 0.01 0.01 0.03 0.02 0.01 0.01 0.01 0.01 0.01 0.01 0.01 0.01 0.01 0.01 0.03 0.08 0.10 0.10 0.08 0.07 0.06 0.05 0.04 0.04 0.03 0.02 0.02 0.02 0.03 0.02 0.03 0.04 0.04 0.02 0.02 0.02 0.02
0.01 0.01 0.01 0.00 0.00 0.00 0.00 0.01 0.01 0.01 0.01 0.01 0.00 0.01 0.02 0.02 0.01 0.01 0.01 0.01 0.01 0.01 0.01 0.02 0.02 0.02 0.02 0.06 0.10 0.09 0.07 0.05 0.05 0.05 0.04 0.03 0.03 0.03 0.03 0.03 0.02 0.02 0.03 0.03 0.04 0.04 0.02 0.02 0.02
0.01 0.01 0.01 0.01 0.01 0.01 0.00 0.01 0.02 0.02 0.01 0.01 0.00 0.00 0.00 0.00 0.00 0.00 0.01 0.01 0.01 0.01 0.02 0.02 0.02 0.02 0.02 0.04 0.07 0.08 0.07 0.05 0.03 0.03 0.02 0.03 0.03 0.03 0.03 0.02 0.02 0.02 0.02 0.02 0.04 0.04 0.03 0.02 0.01
0.00 0.00 0.01 0.00 0.01 0.01 0.01 0.01 0.03 0.02 0.01 0.01 0.00 0.00 0.00 0.00 0.00 0.01 0.01 0.01 0.01 0.01 0.02 0.02 0.02 0.02 0.02 0.03 0.05 0.06 0.06 0.05 0.03 0.02 0.03 0.03 0.03 0.03 0.03 0.03 0.02 0.02 0.02 0.01 0.02 0.03 0.03 0.02 0.01
0.00 0.00 0.00 0.01 0.01 0.00 0.01 0.02 0.02 0.02 0.02 0.01 0.01 0.00 0.01 0.00 0.00 0.00 0.01 0.02 0.01 0.01 0.02 0.02 0.03 0.02 0.02 0.03 0.05 0.05 0.05 0.06 0.05 0.04 0.03 0.03 0.02 0.03 0.03 0.03 0.03 0.02 0.02 0.02 0.02 0.02 0.02 0.03 0.03
0.00 0.00 0.00 0.00 0.00 0.01 0.01 0.02 0.02 0.02 0.02 0.01 0.01 0.01 0.01 0.01 0.00 0.00 0.01 0.02 0.01 0.01 0.02 0.03 0.05 0.04 0.03 0.03 0.04 0.05 0.06 0.06 0.06 0.05 0.05 0.06 0.06 0.06 0.05 0.04 0.04 0.03 0.02 0.02 0.02 0.02 0.03 0.02 0.03
0.00 0.00 0.00 0.01 0.01 0.01 0.01 0.01 0.01 0.02 0.02 0.01 0.01 0.02 0.01 0.01 0.01 0.01 0.01 0.02 0.02 0.02 0.01 0.02 0.05 0.07 0.05 0.04 0.03 0.04 0.06 0.06 0.06 0.06 0.05 0.05 0.06 0.06 0.06 0.05 0.05 0.04 0.03 0.03 0.02 0.02 0.03 0.03 0.03
0.01 0.00 0.00 0.01 0.01 0.01 0.01 0.01 0.01 0.01 0.01 0.01 0.01 0.02 0.02 0.02 0.02 0.01 0.01 0.02 0.02 0.02 0.02 0.02 0.04 0.07 0.06 0.05 0.05 0.04 0.04 0.06 0.06 0.05 0.04 0.04 0.04 0.04 0.04 0.04 0.04 0.04 0.04 0.03 0.03 0.02 0.02 0.03 0.04
0.01 0.01 0.00 0.00 0.00 0.00 0.01 0.01 0.01 0.00 0.00 0.01 0.01 0.01 0.02 0.02 0.02 0.01 0.01 0.01 0.02 0.02 0.02 0.02 0.03 0.04 0.04 0.04 0.05 0.05 0.04 0.06 0.07 0.05 0.03 0.04 0.04 0.03 0.05 0.04 0.04 0.04 0.03 0.03 0.03 0.03 0.03 0.02 0.03
MSLP
1004.93 1006.09 1007.60 1009.27 1010.93 1012.39 1013.51 1014.24 1014.58 1014.59 1014.41 1014.15 1013.93 1013.78 1013.71 1013.66 1013.57 1013.34 1012.94 1012.34 1011.58 1010.73 1009.87 1009.07 1008.40 1007.88 1007.50 1007.22 1007.00 1006.81 1006.63 1006.46 1006.32 1006.24 1006.23 1006.30 1006.43 1006.59 1006.75 1006.86 1006.92 1006.92 1006.88 1006.84 1006.82 1006.86 1006.97 1007.16 1007.39
1005.62 1007.07 1008.78 1010.55 1012.18 1013.50 1014.41 1014.86 1014.91 1014.65 1014.25 1013.84 1013.51 1013.32 1013.25 1013.23 1013.19 1013.03 1012.71 1012.20 1011.54 1010.80 1010.04 1009.35 1008.77 1008.33 1008.01 1007.78 1007.60 1007.44 1007.28 1007.12 1006.98 1006.89 1006.85 1006.87 1006.94 1007.04 1007.12 1007.16 1007.16 1007.10 1007.01 1006.91 1006.84 1006.82 1006.87 1006.98 1007.15
1006.51 1008.18 1010.01 1011.79 1013.31 1014.44 1015.09 1015.27 1015.05 1014.58 1014.01 1013.48 1013.09 1012.88 1012.80 1012.81 1012.80 1012.69 1012.42 1012.00 1011.44 1010.80 1010.17 1009.60 1009.14 1008.80 1008.57 1008.40 1008.27 1008.14 1008.00 1007.85 1007.71 1007.59 1007.51 1007.47 1007.46 1007.47 1007.47 1007.43 1007.36 1007.24 1007.10 1006.96 1006.84 1006.77 1006.76 1006.81 1006.92
1007.54 1009.34 1011.19 1012.89 1014.24 1015.14 1015.54 1015.47 1015.05 1014.43 1013.76 1013.18 1012.78 1012.56 1012.49 1012.50 1012.50 1012.41 1012.18 1011.82 1011.35 1010.83 1010.32 1009.89 1009.55 1009.32 1009.16 1009.06 1008.97 1008.87 1008.74 1008.59 1008.43 1008.28 1008.15 1008.05 1007.98 1007.90 1007.82 1007.71 1007.56 1007.39 1007.21 1007.03 1006.88 1006.77 1006.71 1006.70 1006.76
1008.62 1010.45 1012.23 1013.76 1014.90 1015.56 1015.73 1015.47 1014.93 1014.24 1013.56 1013.01 1012.64 1012.45 1012.40 1012.41 1012.40 1012.30 1012.09 1011.76 1011.37 1010.95 1010.56 1010.24 1010.02 1009.87 1009.78 1009.72 1009.65 1009.55 1009.41 1009.25 1009.08 1008.90 1008.75 1008.60 1008.47 1008.34 1008.19 1008.02 1007.83 1007.62 1007.41 1007.20 1007.02 1006.87 1006.78 1006.73 1006.74
1009.64 1011.39 1013.02 1014.34 1015.23 1015.66 1015.64 1015.28 1014.69 1014.03 1013.43 1012.97 1012.69 1012.56 1012.53 1012.54 1012.51 1012.39 1012.17 1011.88 1011.54 1011.20 1010.91 1010.69 1010.54 1010.46 1010.40 1010.35 1010.26 1010.15 1009.99 1009.81 1009.62 1009.44 1009.27 1009.11 1008.96 1008.80 1008.62 1008.42 1008.20 1007.96 1007.73 1007.50 1007.30 1007.13 1007.01 1006.93 1006.91
1010.49 1012.10 1013.50 1014.57 1015.22 1015.45 1015.31 1014.91 1014.37 1013.82 1013.36 1013.05 1012.89 1012.85 1012.86 1012.87 1012.81 1012.66 1012.43 1012.15 1011.85 1011.58 1011.36 1011.21 1011.12 1011.06 1011.01 1010.92 1010.81 1010.65 1010.46 1010.27 1010.07 1009.90 1009.74 1009.60 1009.46 1009.30 1009.11 1008.90 1008.67 1008.42 1008.18 1007.94 1007.73 1007.55 1007.40 1007.30 1007.26
1011.15 1012.54 1013.68 1014.49 1014.91 1014.99 1014.78 1014.41 1013.98 1013.60 1013.33 1013.20 1013.18 1013.23 1013.28 1013.29 1013.21 1013.03 1012.79 1012.52 1012.26 1012.04 1011.88 1011.78 1011.72 1011.66 1011.58 1011.45 1011.28 1011.08 1010.86 1010.64 1010.46 1010.31 1010.19 1010.08 1009.97 1009.84 1009.67 1009.46 1009.23 1008.98 1008.72 1008.48 1008.26 1008.08 1007.93 1007.82 1007.77
1011.59 1012.74 1013.62 1014.18 1014.42 1014.39 1014.16 1013.86 1013.58 1013.38 1013.32 1013.36 1013.48 1013.61 1013.70 1013.70 1013.60 1013.40 1013.16 1012.90 1012.68 1012.51 1012.40 1012.34 1012.30 1012.23 1012.12 1011.94 1011.72 1011.47 1011.23 1011.01 1010.84 1010.72 1010.64 1010.58 1010.51 1010.41 1010.27 1010.07 1009.84 1009.59 1009.33 1009.08 1008.86 1008.68 1008.54 1008.44 1008.38
1011.88 1012.79 1013.43 1013.78 1013.87 1013.77 1013.56 1013.36 1013.22 1013.21 1013.31 1013.51 1013.73 1013.92 1014.03 1014.02 1013.90 1013.70 1013.46 1013.22 1013.04 1012.93 1012.87 1012.85 1012.82 1012.75 1012.62 1012.42 1012.16 1011.89 1011.62 1011.41 1011.26 1011.18 1011.14 1011.12 1011.09 1011.02 1010.89 1010.70 1010.47 1010.21 1009.94 1009.69 1009.48 1009.30 1009.17 1009.09 1009.06
1012.09 1012.79 1013.23 1013.42 1013.40 1013.27 1013.10 1012.99 1012.98 1013.10 1013.33 1013.62 1013.91 1014.13 1014.23 1014.21 1014.08 1013.87 1013.64 1013.45 1013.31 1013.26 1013.26 1013.28 1013.28 1013.23 1013.10 1012.89 1012.63 1012.35 1012.10 1011.90 1011.77 1011.71 1011.70 1011.71 1011.70 1011.64 1011.51 1011.32 1011.08 1010.81 1010.54 1010.28 1010.07 1009.91 1009.81 1009.75 1009.75
1012.29 1012.83 1013.12 1013.19 1013.12 1012.98 1012.86 1012.82 1012.90 1013.11 1013.40 1013.73 1014.02 1014.23 1014.31 1014.27 1014.12 1013.92 1013.72 1013.56 1013.48 1013.48 1013.54 1013.61 1013.66 1013.65 1013.55 1013.37 1013.14 1012.89 1012.66 1012.48 1012.37 1012.33 1012.33 1012.34 1012.32 1012.26 1012.12 1011.92 1011.67 1011.39 1011.11 1010.85 1010.65 1010.50 1010.42 1010.40 1010.43
1012.56 1012.97 1013.16 1013.17 1013.08 1012.96 1012.87 1012.88 1013.01 1013.24 1013.54 1013.84 1014.10 1014.26 1014.31 1014.24 1014.09 1013.90 1013.72 1013.61 1013.58 1013.63 1013.73 1013.86 1013.96 1014.00 1013.97 1013.86 1013.68 1013.49 1013.30 1013.15 1013.06 1013.01 1013.00 1012.99 1012.95 1012.86 1012.71 1012.49 1012.23 1011.94 1011.66 1011.41 1011.21 1011.08 1011.02 1011.03 1011.10
1012.89 1013.22 1013.35 1013.34 1013.26 1013.16 1013.11 1013.14 1013.27 1013.48 1013.73 1013.97 1014.16 1014.27 1014.28 1014.19 1014.04 1013.87 1013.72 1013.64 1013.64 1013.73 1013.87 1014.04 1014.19 1014.30 1014.34 1014.32 1014.23 1014.11 1013.99 1013.87 1013.79 1013.73 1013.69 1013.64 1013.56 1013.44 1013.27 1013.04 1012.78 1012.50 1012.22 1011.98 1011.80 1011.69 1011.65 1011.68 1011.77
1013.26 1013.53 1013.64 1013.63 1013.57 1013.51 1013.48 1013.52 1013.62 1013.77 1013.94 1014.11 1014.23 1014.28 1014.26 1014.17 1014.04 1013.89 1013.78 1013.72 1013.73 1013.82 1013.97 1014.16 1014.36 1014.54 1014.66 1014.73 1014.75 1014.72 1014.66 1014.59 1014.51 1014.43 1014.35 1014.26 1014.14 1014.00 1013.81 1013.59 1013.34 1013.08 1012.83 1012.61 1012.44 1012.34 1012.31 1012.35 1012.45
1013.60 1013.82 1013.93 1013.95 1013.93 1013.90 1013.89 1013.91 1013.97 1014.05 1014.14 1014.23 1014.28 1014.30 1014.27 1014.20 1014.10 1013.99 1013.90 1013.85 1013.86 1013.94 1014.08 1014.26 1014.48 1014.70 1014.91 1015.08 1015.20 1015.26 1015.28 1015.25 1015.18 1015.09 1014.97 1014.84 1014.69 1014.53 1014.34 1014.14 1013.92 1013.70 1013.49 1013.30 1013.15 1013.05 1013.02 1013.06 1013.16
1013.84 1014.03 1014.14 1014.20 1014.23 1014.25 1014.26 1014.26 1014.26 1014.27 1014.28 1014.28 1014.29 1014.29 1014.28 1014.25 1014.21 1014.15 1014.10 1014.05 1014.04 1014.08 1014.18 1014.34 1014.56 1014.81 1015.08 1015.34 1015.56 1015.72 1015.81 1015.83 1015.78 1015.67 1015.53 1015.37 1015.20 1015.03 1014.87 1014.70 1014.54 1014.37 1014.20 1014.05 1013.92 1013.82 1013.79 1013.81 1013.90
1013.95 1014.12 1014.26 1014.37 1014.46 1014.52 1014.54 1014.52 1014.47 1014.39 1014.31 1014.25 1014.22 1014.22 1014.24 1014.28 1014.31 1014.32 1014.31 1014.28 1014.24 1014.24 1014.28 1014.39 1014.59 1014.86 1015.18 1015.51 1015.82 1016.07 1016.24 1016.31 1016.29 1016.19 1016.03 1015.86 1015.69 1015.53 1015.39 1015.28 1015.17 1015.07 1014.95 1014.84 1014.72 1014.63 1014.58 1014.59 1014.65
1013.92 1014.09 1014.28 1014.47 1014.64 1014.75 1014.78 1014.73 1014.60 1014.43 1014.26 1014.12 1014.04 1014.05 1014.12 1014.23 1014.35 1014.44 1014.48 1014.46 1014.42 1014.37 1014.36 1014.42 1014.59 1014.85 1015.20 1015.60 1015.99 1016.33 1016.57 1016.71 1016.72 1016.64 1016.49 1016.32 1016.15 1016.02 1015.92 1015.86 1015.81 1015.76 1015.70 1015.62 1015.53 1015.44 1015.38 1015.36 1015.40
1013.81 1014.03 1014.30 1014.59 1014.85 1015.02 1015.05 1014.95 1014.73 1014.44 1014.14 1013.90 1013.77 1013.75 1013.86 1014.04 1014.24 1014.42 1014.53 1014.56 1014.52 1014.45 1014.39 1014.41 1014.55 1014.81 1015.18 1015.63 1016.08 1016.50 1016.82 1017.02 1017.08 1017.03 1016.91 1016.75 1016.61 1016.50 1016.44 1016.42 1016.43 1016.44 1016.42 1016.37 1016.30 1016.22 1016.15 1016.12 1016.14
1013.70 1014.01 1014.42 1014.84 1015.20 1015.42 1015.46 1015.29 1014.95 1014.50 1014.04 1013.65 1013.41 1013.35 1013.45 1013.67 1013.96 1014.22 1014.41 1014.50 1014.50 1014.43 1014.37 1014.36 1014.48 1014.73 1015.12 1015.60 1016.12 1016.60 1016.99 1017.25 1017.37 1017.37 1017.28 1017.16 1017.04 1016.96 1016.94 1016.96 1017.01 1017.05 1017.07 1017.05 1017.00 1016.93 1016.86 1016.83 1016.85
1013.68 1014.15 1014.72 1015.30 1015.78 1016.06 1016.07 1015.81 1015.31 1014.67 1014.00 1013.42 1013.02 1012.85 1012.91 1013.15 1013.48 1013.83 1014.11 1014.28 1014.33 1014.31 1014.26 1014.26 1014.37 1014.62 1015.02 1015.53 1016.08 1016.62 1017.08 1017.41 1017.59 1017.64 1017.61 1017.52 1017.44 1017.39 1017.40 1017.45 1017.52 1017.60 1017.64 1017.65 1017.61 1017.55 1017.50 1017.47 1017.50
1013.83 1014.48 1015.25 1016.01 1016.61 1016.93 1016.91 1016.53 1015.85 1014.97 1014.05 1013.24 1012.64 1012.32 1012.29 1012.50 1012.87 1013.28 1013.64 1013.90 1014.04 1014.08 1014.07 1014.09 1014.21 1014.47 1014.88 1015.40 1015.99 1016.57 1017.08 1017.47 1017.72 1017.84 1017.86 1017.82 1017.78 1017.77 1017.79 1017.87 1017.96 1018.05 1018.12 1018.15 1018.13 1018.10 1018.06 1018.05 1018.10
1014.14 1015.01 1015.98 1016.91 1017.62 1017.98 1017.90 1017.39 1016.51 1015.39 1014.20 1013.13 1012.30 1011.80 1011.65 1011.80 1012.16 1012.61 1013.05 1013.40 1013.63 1013.75 1013.81 1013.87 1014.01 1014.28 1014.69 1015.22 1015.82 1016.43 1016.98 1017.43 1017.75 1017.93 1018.02 1018.04 1018.05 1018.07 1018.12 1018.21 1018.32 1018.43 1018.51 1018.56 1018.57 1018.56 1018.55 1018.56 1018.63
1014.57 1015.64 1016.81 1017.88 1018.67 1019.04 1018.91 1018.26 1017.19 1015.84 1014.40 1013.07 1012.02 1011.33 1011.03 1011.10 1011.43 1011.90 1012.40 1012.83 1013.15 1013.35 1013.48 1013.59 1013.76 1014.04 1014.45 1014.97 1015.58 1016.20 1016.79 1017.28 1017.66 1017.91 1018.07 1018.16 1018.22 1018.28 1018.37 1018.48 1018.61 1018.73 1018.83 1018.90 1018.94 1018.95 1018.97 1019.01 1019.09
1015.05 1016.28 1017.58 1018.75 1019.59 1019.94 1019.74 1018.98 1017.75 1016.21 1014.57 1013.04 1011.79 1010.93 1010.50 1010.48 1010.76 1011.23 1011.76 1012.25 1012.63 1012.91 1013.10 1013.26 1013.46 1013.75 1014.15 1014.66 1015.26 1015.89 1016.49 1017.03 1017.46 1017.78 1018.01 1018.17 1018.30 1018.41 1018.54 1018.68 1018.83 1018.97 1019.09 1019.19 1019.25 1019.29 1019.33 1019.39 1019.48
1015.47 1016.80 1018.16 1019.35 1020.18 1020.50 1020.23 1019.38 1018.05 1016.39 1014.63 1012.97 1011.60 1010.62 1010.09 1009.98 1010.20 1010.65 1011.18 1011.69 1012.12 1012.45 1012.69 1012.89 1013.11 1013.41 1013.80 1014.30 1014.89 1015.51 1016.13 1016.70 1017.18 1017.57 1017.87 1018.11 1018.30 1018.47 1018.65 1018.82 1019.00 1019.17 1019.31 1019.43 1019.52 1019.59 1019.65 1019.72 1019.81
1015.77 1017.09 1018.41 1019.55 1020.31 1020.56 1020.23 1019.34 1017.98 1016.30 1014.52 1012.83 1011.42 1010.40 1009.81 1009.64 1009.81 1010.20 1010.70 1011.20 1011.64 1011.99 1012.26 1012.48 1012.73 1013.03 1013.42 1013.91 1014.48 1015.11 1015.74 1016.33 1016.86 1017.31 1017.68 1017.99 1018.25 1018.49 1018.71 1018.93 1019.14 1019.33 1019.50 1019.65 1019.76 1019.85 1019.92 1019.99 1020.07
1015.89 1017.10 1018.29 1019.29 1019.92 1020.08 1019.71 1018.81 1017.49 1015.89 1014.20 1012.61 1011.26 1010.27 1009.68 1009.47 1009.58 1009.91 1010.35 1010.80 1011.21 1011.54 1011.82 1012.05 1012.31 1012.62 1013.02 1013.51 1014.08 1014.71 1015.35 1015.98 1016.55 1017.05 1017.49 1017.86 1018.19 1018.48 1018.75 1019.01 1019.25 1019.48 1019.68 1019.85 1019.98 1020.08 1020.17 1020.23 1020.29
1015.86 1016.87 1017.85 1018.63 1019.09 1019.13 1018.71 1017.86 1016.66 1015.22 1013.72 1012.31 1011.12 1010.23 1009.69 1009.47 1009.53 1009.78 1010.12 1010.49 1010.83 1011.12 1011.37 1011.61 1011.87 1012.20 1012.61 1013.11 1013.70 1014.34 1015.01 1015.66 1016.27 1016.83 1017.32 1017.75 1018.13 1018.48 1018.80 1019.09 1019.37 1019.62 1019.84 1020.03 1020.18 1020.30 1020.38 1020.44 1020.48
Thickness
5798 5799 5796 5781 5753 5728 5722 5732 5743 5746 5749 5757 5762 5757 5747 5741 5735 5730 5754 5763 5763 5763 5763 5764 5765 5766 5766 5767 5768 5768 5769 5769 5769 5768 5768 5768 5767 5767 5767 5767 5767 5767 5768 5768 5768 5769 5769 5770 5770
5798 5797 5785 5764 5732 5711 5718 5734 5740 5748 5755 5761 5760 5755 5747 5744 5751 5751 5756 5761 5763 5762 5762 5763 5763 5764 5765 5765 5766 5767 5767 5766 5766 5765 5765 5764 5764 5764 5764 5764 5764 5764 5765 5765 5765 5765 5766 5766 5766
5798 5793 5768 5746 5726 5716 5722 5737 5743 5754 5762 5761 5753 5752 5747 5744 5752 5754 5759 5762 5762 5761 5761 5761 5761 5762 5762 5763 5764 5765 5764 5764 5763 5762 5761 5761 5761 5761 5761 5761 5761 5761 5761 5762 5762 5762 5763 5763 5763
5790 5775 5759 5736 5725 5732 5737 5742 5749 5751 5756 5758 5752 5743 5747 5756 5756 5758 5761 5761 5760 5759 5759 5759 5759 5759 5760 5760 5761 5762 5762 5762 5760 5759 5759 5758 5758 5758 5757 5757 5758 5758 5758 5758 5759 5759 5759 5759 5759
5782 5759 5737 5723 5728 5738 5745 5751 5753 5748 5748 5750 5748 5737 5739 5754 5761 5761 5760 5759 5757 5756 5757 5757 5756 5757 5757 5757 5758 5760 5761 5759 5757 5756 5755 5755 5754 5754 5754 5754 5754 5754 5755 5755 5755 5755 5755 5756 5756
5761 5746 5722 5714 5727 5739 5746 5753 5751 5745 5744 5747 5744 5735 5737 5753 5756 5757 5759 5757 5757 5755 5755 5754 5754 5754 5754 5754 5755 5756 5757 5755 5753 5753 5752 5751 5750 5750 5750 5750 5750 5750 5750 5750 5751 5751 5751 5751 5752
5752 5735 5721 5721 5724 5732 5744 5753 5747 5743 5742 5745 5747 5733 5736 5747 5754 5756 5756 5755 5754 5753 5752 5751 5751 5751 5751 5751 5751 5752 5752 5751 5750 5749 5748 5747 5747 5747 5746 5746 5746 5746 5746 5746 5746 5746 5747 5747 5747
5759 5736 5723 5722 5723 5729 5746 5752 5751 5747 5744 5754 5751 5733 5732 5745 5753 5754 5752 5751 5750 5750 5749 5749 5749 5749 5748 5748 5748 5748 5747 5747 5746 5746 5745 5744 5743 5743 5743 5742 5742 5742 5742 5742 5742 5742 5742 5742 5742
5762 5728 5716 5723 5726 5732 5746 5746 5750 5755 5750 5750 5751 5747 5748 5752 5752 5748 5745 5744 5744 5745 5746 5746 5746 5746 5745 5745 5744 5744 5743 5743 5743 5742 5741 5740 5740 5739 5739 5738 5738 5738 5738 5738 5738 5738 5737 5737 5736
5746 5720 5726 5737 5739 5739 5744 5744 5745 5743 5739 5739 5742 5747 5751 5749 5745 5741 5738 5737 5738 5740 5742 5743 5743 5743 5742 5742 5741 5740 5740 5739 5739 5738 5737 5737 5736 5736 5735 5734 5734 5734 5734 5734 5733 5733 5732 5732 5731
5745 5731 5738 5743 5747 5747 5743 5743 5746 5737 5729 5734 5736 5739 5743 5742 5740 5738 5737 5737 5738 5740 5741 5741 5741 5740 5740 5739 5738 5737 5737 5736 5735 5734 5734 5733 5732 5731 5731 5730 5730 5730 5729 5729 5729 5728 5728 5727 5726
5744 5743 5746 5746 5750 5747 5743 5742 5740 5737 5736 5744 5745 5744 5741 5738 5736 5737 5736 5737 5738 5738 5739 5740 5740 5738 5737 5736 5736 5734 5733 5732 5732 5731 5730 5729 5728 5727 5727 5726 5725 5725 5725 5725 5724 5723 5723 5722 5722
5741 5742 5748 5749 5748 5746 5744 5739 5737 5737 5744 5746 5744 5741 5738 5736 5737 5738 5740 5740 5738 5737 5738 5738 5738 5737 5735 5734 5733 5732 5730 5730 5729 5728 5727 5726 5725 5723 5722 5722 5721 5721 5721 5721 5721 5720 5719 5718 5717
5742 5743 5743 5744 5743 5743 5737 5735 5734 5734 5742 5741 5738 5736 5735 5735 5736 5736 5736 5736 5736 5736 5737 5737 5736 5735 5733 5732 5730 5729 5728 5727 5726 5726 5724 5723 5722 5721 5720 5718 5718 5717 5717 5717 5717 5716 5715 5714 5713
5746 5735 5732 5736 5737 5737 5735 5722 5727 5736 5739 5735 5734 5734 5734 5734 5735 5735 5736 5736 5736 5735 5736 5735 5734 5733 5731 5730 5728 5727 5725 5724 5723 5722 5721 5720 5719 5718 5717 5716 5715 5714 5714 5714 5713 5712 5711 5710 5709
5733 5720 5711 5726 5733 5735 5724 5706 5725 5736 5733 5728 5728 5729 5730 5732 5734 5735 5737 5736 5735 5734 5733 5733 5732 5730 5729 5727 5725 5724 5723 5721 5720 5719 5718 5717 5716 5716 5714 5713 5712 5711 5711 5710 5709 5707 5705 5704 5703
5712 5702 5705 5717 5730 5730 5719 5708 5722 5731 5729 5724 5723 5724 5725 5727 5729 5732 5734 5735 5734 5733 5732 5730 5729 5727 5726 5724 5722 5721 5719 5718 5717 5716 5715 5714 5713 5712 5711 5710 5709 5708 5707 5706 5705 5703 5701 5699 5698
5701 5702 5705 5708 5722 5723 5713 5710 5718 5724 5724 5720 5719 5719 5721 5722 5725 5729 5731 5732 5731 5730 5729 5727 5726 5724 5722 5721 5719 5717 5715 5714 5714 5713 5712 5711 5710 5709 5708 5707 5705 5704 5703 5702 5701 5698 5697 5695 5694
5714 5708 5704 5711 5723 5716 5708 5706 5712 5718 5718 5715 5714 5715 5716 5719 5723 5726 5728 5727 5726 5724 5723 5722 5721 5719 5718 5715 5712 5710 5708 5709 5709 5709 5708 5707 5706 5705 5704 5703 5702 5700 5699 5697 5696 5695 5692 5690 5690
5714 5704 5703 5711 5721 5714 5703 5702 5709 5714 5714 5714 5713 5712 5714 5715 5717 5719 5721 5721 5720 5719 5718 5717 5717 5716 5714 5712 5710 5709 5706 5705 5705 5705 5704 5703 5702 5701 5701 5699 5698 5697 5695 5693 5692 5691 5687 5686 5686
5709 5703 5702 5703 5709 5710 5701 5692 5699 5708 5713 5714 5714 5714 5714 5714 5713 5713 5713 5713 5714 5713 5713 5713 5712 5712 5711 5710 5707 5705 5702 5699 5698 5698 5698 5698 5698 5697 5697 5696 5694 5693 5692 5690 5688 5687 5684 5681 5680
5700 5713 5711 5706 5693 5684 5692 5670 5688 5697 5701 5705 5706 5707 5709 5711 5711 5709 5709 5708 5709 5709 5709 5709 5708 5707 5706 5705 5702 5699 5695 5692 5692 5692 5693 5693 5693 5693 5693 5691 5690 5689 5687 5686 5685 5684 5682 5679 5675
5708 5717 5712 5705 5693 5682 5683 5671 5677 5691 5690 5696 5701 5704 5705 5707 5707 5706 5706 5705 5705 5705 5704 5704 5703 5702 5701 5701 5699 5695 5692 5690 5689 5688 5688 5688 5688 5687 5687 5687 5685 5684 5683 5682 5681 5679 5678 5676 5673
5715 5706 5699 5687 5678 5666 5677 5669 5669 5681 5690 5695 5698 5700 5701 5702 5703 5703 5703 5703 5701 5701 5700 5699 5698 5697 5696 5695 5694 5692 5689 5686 5684 5682 5682 5682 5682 5682 5682 5681 5680 5679 5678 5677 5676 5675 5673 5671 5670
5702 5678 5660 5657 5652 5658 5678 5671 5672 5691 5699 5699 5697 5697 5698 5699 5698 5697 5697 5697 5696 5695 5694 5693 5692 5690 5690 5690 5689 5687 5685 5683 5680 5679 5677 5676 5675 5675 5676 5676 5675 5674 5673 5672 5671 5669 5668 5667 5664
5692 5679 5655 5646 5645 5655 5671 5666 5677 5696 5700 5701 5698 5696 5695 5694 5693 5693 5693 5692 5690 5690 5689 5688 5686 5685 5684 5684 5683 5682 5681 5678 5677 5675 5674 5672 5671 5671 5671 5670 5670 5669 5668 5667 5666 5664 5662 5661 5659
5687 5676 5677 5659 5657 5651 5656 5667 5680 5689 5691 5691 5690 5689 5688 5689 5689 5689 5688 5687 5686 5685 5684 5683 5681 5679 5678 5678 5678 5676 5675 5673 5672 5670 5669 5668 5667 5667 5666 5664 5663 5663 5662 5661 5660 5658 5656 5654 5652
5695 5683 5663 5654 5643 5638 5649 5655 5658 5673 5677 5682 5682 5682 5683 5684 5684 5684 5683 5682 5681 5680 5679 5678 5676 5673 5672 5672 5671 5671 5669 5668 5667 5665 5663 5662 5662 5661 5659 5658 5656 5656 5655 5655 5653 5651 5650 5647 5646
5683 5677 5665 5650 5646 5635 5632 5646 5673 5674 5677 5676 5678 5680 5680 5679 5678 5678 5677 5676 5675 5674 5673 5671 5669 5667 5666 5665 5665 5664 5662 5662 5661 5659 5658 5657 5656 5654 5653 5651 5650 5649 5648 5647 5646 5644 5642 5640 5638
5684 5676 5662 5646 5642 5638 5630 5642 5677 5676 5677 5676 5675 5675 5675 5674 5673 5672 5670 5669 5668 5667 5666 5664 5663 5661 5660 5659 5658 5657 5655 5654 5654 5653 5652 5651 5649 5648 5647 5645 5643 5642 5641 5640 5639 5637 5635 5633 5631